Regional Weather Roundup
Issued by NWS Bismarck, ND

Home | Current Version | Previous Version | Text Only | Print | Product List | Glossary On
Versions: 1 2 3 4 5 6 7 8 9 10 11 12 13 14 15 16 17 18 19 20 21 22 23 24 25 26 27 28 29 30 31 32 33 34 35 36 37 38 39 40 41 42 43 44 45 46 47 48 49 50
000
ASUS43 KBIS 191702
RWRBIS

NWR BROADCAST TEXT
NATIONAL WEATHER SERVICE BISMARCK ND
1200 PM CDT TUE SEP 19 2017

NOTE: "FAIR" INDICATES FEW OR NO CLOUDS BELOW 12,000 FEET WITH NO
SIGNIFICANT WEATHER AND/OR OBSTRUCTIONS TO VISIBILITY.


CITY           SKY/WX    TMP DP  RH WIND       PRES   REMARKS
WILLISTON      CLOUDY    57  53  86 W8        29.46R
MINOT          CLOUDY    68  61  78 SE16G29   29.44F
MINOT AFB      NOT AVBL
BISMARCK       CLOUDY    66  51  58 SE17      29.47F
DICKINSON      LGT RAIN  58  50  75 NW18G25   29.47S
GARRISON         N/A     66  61  84 S18       29.46S
HETTINGER ARPT CLOUDY    63  46  54 W9        29.53R
JAMESTOWN      NOT AVBL
CARRINGTON     CLOUDY    66  64  94 SE18      29.58F
HAZEN          FAIR      66  61  82 S20       29.48R
LINTON         PTSUNNY   66  63  88 SE17G24   29.50F
MANDAN         FAIR      66  64  94 SE17G24   29.48F
RUGBY          CLOUDY    64  64 100 SE17G29   29.53R
STANLEY        FAIR      63  59  88 SW14      29.48R
TIOGA          LGT RAIN  57  57 100 SW13G20   29.45S
WATFORD CITY   FAIR      57  54  88 SW13G18   29.47S
$$

CITY           SKY/WX    TMP DP  RH WIND       PRES   REMARKS
GRAND FORKS    CLOUDY    65  63  93 SE18G26   29.66F
GRAND FORKS AF NOT AVBL
DEVILS LAKE    CLOUDY    62  61  96 SE22G28   29.57F
FARGO          CLOUDY    72  63  73 SE17G28   29.67F
CANDO          CLOUDY    63  63 100 SE22G30   29.57F
CAVALIER       FOG       59  59 100 SE12G20   29.67F VSB 3/4
GRAFTON        CLOUDY    61  61 100 SE15G23   29.69F FOG
GWINNER        CLOUDY    70  64  83 SE16G24   29.64F
LANGDON        CLOUDY    59  59 100 SE18G31   29.63F FOG
ROLLA          CLOUDY    59  59 100 SE24G32   29.54F FOG
WALHALLA       FOG      N/A N/A N/A SE20G26   29.65F VSB 1
$$

CITY           SKY/WX    TMP DP  RH WIND       PRES   REMARKS
ABERDEEN       CLOUDY    76  64  66 SE26G33   29.59F
MOBRIDGE       LGT RAIN  69  65  86 SE15G29   29.47F
BUFFALO          N/A     63  47  55 W8        29.48S
RAPID CITY     SUNNY     66  45  45 N17G24    29.56F
GLASGOW        CLOUDY    56  38  50 W16       29.53S
SIDNEY         CLOUDY    60  50  69 W20G25    29.48S
WOLF POINT     CLOUDY    55  47  74 W17G24    29.53R
GLENDIVE         N/A     56  45  66 W16       29.53F
MILES CITY     LGT RAIN  54  41  61 W16       29.58S
BAKER          CLOUDY    55  45  68 NW17      29.56R
$$

CITY           SKY/WX    TMP DP  RH WIND       PRES   REMARKS
BILLINGS       LGT RAIN  48  41  76 SW12      29.68R
GREAT FALLS    MOSUNNY   51  31  46 SW17G26   29.64S
$$





USA.gov is the U.S. government's official web portal to all federal, state and local government web resources and services.